| time (UTC) | temp C | wind direction | speed KPH | gust KPH | rain 1hr cm | rain 24hr cm | rain mn cm | humidity % | barometer mb |
| 20260506042829 | 13 | 285 | 6.4 | 14.5 | 0.00 | 0.05 | 0.05 | 80 | 1017.3 |
| 20260506042331 | 13 | 277 | 6.4 | 16.1 | 0.00 | 0.05 | 0.05 | 80 | 1017.2 |
| 20260506042218 | 13 | 276 | 6.4 | 16.1 | 0.00 | 0.05 | 0.05 | 80 | 1017.2 |
| 20260506041329 | 13 | 278 | 6.4 | 12.9 | 0.00 | 0.05 | 0.05 | 80 | 1017.2 |
| 20260506040830 | 13 | 304 | 8.0 | 14.5 | 0.00 | 0.05 | 0.05 | 80 | 1017.1 |
| 20260506040714 | 13 | 256 | 9.7 | 17.7 | 0.00 | 0.05 | 0.05 | 80 | 1017.0 |
| 20260506035829 | 13 | 279 | 11.3 | 19.3 | 0.00 | 0.05 | 0.05 | 80 | 1017.0 |
| 20260506035339 | 13 | 263 | 11.3 | 19.3 | 0.00 | 0.05 | 0.05 | 80 | 1016.9 |
| 20260506034837 | 13 | 278 | 9.7 | 17.7 | 0.00 | 0.05 | 0.05 | 80 | 1016.8 |
| 20260506034705 | 13 | 278 | 8.0 | 17.7 | 0.00 | 0.05 | 0.05 | 80 | 1016.8 |
| 20260506033829 | 13 | 314 | 11.3 | 17.7 | 0.00 | 0.05 | 0.05 | 79 | 1016.8 |
| 20260506033659 | 13 | 264 | 11.3 | 19.3 | 0.00 | 0.05 | 0.05 | 79 | 1016.7 |
| 20260506032830 | 13 | 260 | 11.3 | 20.9 | 0.00 | 0.05 | 0.05 | 79 | 1016.7 |
| 20260506032329 | 13 | 270 | 12.9 | 20.9 | 0.00 | 0.05 | 0.05 | 79 | 1016.6 |
| 20260506032202 | 13 | 282 | 12.9 | 19.3 | 0.00 | 0.05 | 0.05 | 79 | 1016.6 |
| 20260506031722 | 13 | 271 | 11.3 | 19.3 | 0.00 | 0.05 | 0.05 | 79 | 1016.6 |
| 20260506030831 | 13 | 257 | 9.7 | 19.3 | 0.00 | 0.05 | 0.05 | 79 | 1016.4 |
| 20260506030323 | 13 | 295 | 8.0 | 19.3 | 0.00 | 0.05 | 0.05 | 79 | 1016.4 |
| 20260506025815 | 13 | 290 | 8.0 | 17.7 | 0.00 | 0.05 | 0.05 | 79 | 1016.3 |
| 20260506025309 | 13 | 271 | 6.4 | 16.1 | 0.00 | 0.05 | 0.05 | 79 | 1016.2 |
| 20260506024802 | 13 | 278 | 6.4 | 17.7 | 0.00 | 0.05 | 0.05 | 78 | 1016.2 |
| 20260506024302 | 13 | 302 | 6.4 | 17.7 | 0.00 | 0.05 | 0.05 | 78 | 1016.1 |
| 20260506023803 | 14 | 300 | 8.0 | 19.3 | 0.00 | 0.05 | 0.05 | 77 | 1016.1 |
| 20260506023302 | 14 | 238 | 11.3 | 19.3 | 0.00 | 0.05 | 0.05 | 77 | 1015.9 |
| 20260506022804 | 14 | 281 | 11.3 | 20.9 | 0.00 | 0.05 | 0.05 | 77 | 1015.8 |
| 20260506022305 | 15 | 266 | 11.3 | 20.9 | 0.00 | 0.05 | 0.05 | 76 | 1015.8 |
| 20260506021804 | 15 | 260 | 12.9 | 24.1 | 0.00 | 0.05 | 0.05 | 76 | 1015.8 |
| 20260506021303 | 15 | 284 | 12.9 | 24.1 | 0.00 | 0.05 | 0.05 | 75 | 1015.8 |
| 20260506020803 | 15 | 271 | 11.3 | 20.9 | 0.00 | 0.05 | 0.05 | 75 | 1015.8 |
| 20260506020301 | 15 | 284 | 12.9 | 20.9 | 0.00 | 0.05 | 0.05 | 75 | 1015.8 |
| 20260506015802 | 15 | 281 | 11.3 | 20.9 | 0.00 | 0.05 | 0.05 | 75 | 1015.8 |
| 20260506015301 | 15 | 270 | 9.7 | 20.9 | 0.00 | 0.05 | 0.05 | 75 | 1015.8 |
| 20260506014803 | 15 | 258 | 9.7 | 20.9 | 0.00 | 0.05 | 0.05 | 74 | 1015.8 |
| 20260506014301 | 15 | 247 | 11.3 | 20.9 | 0.00 | 0.05 | 0.05 | 74 | 1015.9 |
| 20260506013802 | 15 | 281 | 11.3 | 19.3 | 0.00 | 0.05 | 0.05 | 74 | 1016.0 |
| 20260506013254 | 15 | 294 | 9.7 | 19.3 | 0.00 | 0.05 | 0.05 | 73 | 1015.7 |
| 20260506012746 | 15 | 248 | 9.7 | 19.3 | 0.00 | 0.05 | 0.05 | 73 | 1015.8 |
| 20260506012239 | 15 | 280 | 11.3 | 20.9 | 0.00 | 0.05 | 0.05 | 73 | 1015.8 |
| 20260506011735 | 15 | 292 | 11.3 | 22.5 | 0.00 | 0.05 | 0.05 | 72 | 1015.8 |
| 20260506011235 | 15 | 275 | 9.7 | 22.5 | 0.00 | 0.05 | 0.05 | 72 | 1015.7 |
| 20260506011126 | 15 | 255 | 8.0 | 22.5 | 0.00 | 0.05 | 0.05 | 72 | 1015.8 |
| 20260506010236 | 16 | 284 | 9.7 | 19.3 | 0.00 | 0.05 | 0.05 | 71 | 1015.7 |
| 20260506005735 | 16 | 263 | 11.3 | 20.9 | 0.00 | 0.05 | 0.05 | 69 | 1015.6 |
| 20260506005237 | 16 | 247 | 11.3 | 20.9 | 0.00 | 0.05 | 0.05 | 69 | 1015.7 |
| 20260506004736 | 16 | 239 | 11.3 | 22.5 | 0.00 | 0.05 | 0.05 | 72 | 1015.7 |
| 20260506004627 | 15 | 271 | 14.5 | 29.0 | 0.00 | 0.05 | 0.05 | 73 | 1015.7 |
| 20260506003735 | 15 | 277 | 12.9 | 29.0 | 0.00 | 0.05 | 0.05 | 73 | 1015.7 |
| 20260506003237 | 15 | 269 | 12.9 | 24.1 | 0.00 | 0.05 | 0.05 | 73 | 1015.7 |
| 20260506002735 | 15 | 240 | 14.5 | 24.1 | 0.00 | 0.05 | 0.05 | 73 | 1015.6 |
| 20260506002237 | 15 | 279 | 14.5 | 24.1 | 0.00 | 0.05 | 0.05 | 73 | 1015.5 |
| 20260506001735 | 15 | 286 | 16.1 | 29.0 | 0.00 | 0.05 | 0.05 | 72 | 1015.5 |
| 20260506001236 | 15 | 275 | 12.9 | 29.0 | 0.00 | 0.05 | 0.05 | 73 | 1015.4 |
| 20260506000736 | 15 | 290 | 11.3 | 27.4 | 0.00 | 0.05 | 0.05 | 74 | 1015.4 |
| 20260506000240 | 15 | 344 | 12.9 | 27.4 | 0.00 | 0.05 | 0.05 | 73 | 1015.5 |
| 20260506000117 | 15 | 229 | 11.3 | 24.1 | 0.00 | 0.05 | 0.05 | 74 | 1015.4 |
| 20260505235242 | 15 | 246 | 11.3 | 27.4 | 0.00 | 0.05 | 0.05 | 74 | 1015.5 |
| 20260505234744 | 15 | 302 | 9.7 | 27.4 | 0.00 | 0.05 | 0.05 | 74 | 1015.6 |
| 20260505234243 | 15 | 252 | 11.3 | 25.7 | 0.00 | 0.05 | 0.05 | 73 | 1015.6 |
| 20260505233743 | 15 | 274 | 14.5 | 25.7 | 0.00 | 0.05 | 0.05 | 74 | 1015.6 |
| 20260505233246 | 15 | 230 | 14.5 | 24.1 | 0.00 | 0.05 | 0.05 | 73 | 1015.7 |
| 20260505232743 | 15 | 281 | 16.1 | 30.6 | 0.00 | 0.05 | 0.05 | 73 | 1015.7 |
| 20260505232250 | 15 | 296 | 16.1 | 30.6 | 0.00 | 0.05 | 0.05 | 73 | 1015.7 |
| 20260505232121 | 16 | 277 | 14.5 | 30.6 | 0.00 | 0.05 | 0.05 | 73 | 1015.7 |
| 20260505231243 | 16 | 313 | 14.5 | 29.0 | 0.00 | 0.05 | 0.05 | 73 | 1015.7 |
| 20260505230741 | 15 | 276 | 12.9 | 29.0 | 0.00 | 0.05 | 0.05 | 73 | 1015.8 |
| 20260505230243 | 15 | 292 | 12.9 | 29.0 | 0.00 | 0.05 | 0.05 | 73 | 1015.6 |
| 20260505225742 | 16 | 260 | 14.5 | 29.0 | 0.00 | 0.05 | 0.05 | 73 | 1015.5 |
| 20260505225243 | 15 | 296 | 16.1 | 29.0 | 0.00 | 0.05 | 0.05 | 73 | 1015.6 |
| 20260505224742 | 15 | 308 | 16.1 | 29.0 | 0.00 | 0.05 | 0.05 | 73 | 1015.6 |
| 20260505224622 | 16 | 309 | 14.5 | 29.0 | 0.00 | 0.05 | 0.05 | 73 | 1015.5 |
| 20260505224115 | 16 | 243 | 14.5 | 29.0 | 0.00 | 0.05 | 0.05 | 72 | 1015.6 |
| 20260505223242 | 16 | 322 | 12.9 | 29.0 | 0.00 | 0.05 | 0.05 | 72 | 1015.6 |
| 20260505223114 | 16 | 283 | 11.3 | 24.1 | 0.00 | 0.05 | 0.05 | 71 | 1015.6 |
| 20260505222615 | 16 | 279 | 12.9 | 24.1 | 0.00 | 0.05 | 0.05 | 72 | 1015.6 |
| 20260505222123 | 16 | 265 | 11.3 | 27.4 | 0.00 | 0.05 | 0.05 | 71 | 1015.7 |
| 20260505221237 | 16 | 260 | 11.3 | 27.4 | 0.00 | 0.05 | 0.05 | 71 | 1015.7 |
| 20260505220738 | 16 | 284 | 11.3 | 24.1 | 0.00 | 0.05 | 0.05 | 71 | 1015.7 |
| 20260505220237 | 16 | 293 | 11.3 | 24.1 | 0.00 | 0.05 | 0.05 | 70 | 1015.5 |
| 20260505215737 | 16 | 208 | 11.3 | 24.1 | 0.00 | 0.05 | 0.05 | 70 | 1015.6 |
| 20260505215236 | 16 | 284 | 9.7 | 22.5 | 0.00 | 0.05 | 0.05 | 69 | 1015.7 |
| 20260505215117 | 17 | 248 | 9.7 | 22.5 | 0.00 | 0.05 | 0.05 | 67 | 1015.7 |
| 20260505214642 | 17 | 241 | 11.3 | 22.5 | 0.00 | 0.05 | 0.05 | 70 | 1015.7 |
| 20260505213733 | 15 | 275 | 11.3 | 22.5 | 0.00 | 0.05 | 0.05 | 71 | 1015.8 |
| 20260505213239 | 15 | 254 | 12.9 | 24.1 | 0.00 | 0.05 | 0.05 | 72 | 1015.9 |
| 20260505212735 | 15 | 252 | 11.3 | 24.1 | 0.00 | 0.05 | 0.05 | 72 | 1015.8 |
| 20260505212234 | 15 | 262 | 9.7 | 19.3 | 0.00 | 0.05 | 0.05 | 72 | 1015.9 |
| 20260505211737 | 15 | 237 | 8.0 | 22.5 | 0.00 | 0.05 | 0.05 | 72 | 1016.0 |
| 20260505211234 | 15 | 265 | 4.8 | 22.5 | 0.00 | 0.05 | 0.05 | 73 | 1015.9 |
| 20260505210734 | 15 | 250 | 4.8 | 19.3 | 0.00 | 0.05 | 0.05 | 73 | 1015.9 |
| 20260505210658 | 15 | 275 | 11.3 | 19.3 | 0.00 | 0.05 | 0.05 | 72 | 1015.9 |
| 20260505210648 | 15 | 279 | 14.5 | 27.4 | 0.00 | 0.05 | 0.05 | 72 | 1015.8 |
| 20260505204732 | 15 | 300 | 8.0 | 22.5 | 0.00 | 0.05 | 0.05 | 73 | 1015.7 |
| 20260505204232 | 15 | 298 | 9.7 | 22.5 | 0.00 | 0.05 | 0.05 | 72 | 1015.7 |
| 20260505203731 | 15 | 286 | 8.0 | 19.3 | 0.00 | 0.05 | 0.05 | 73 | 1015.8 |
| 20260505203230 | 15 | 296 | 9.7 | 22.5 | 0.00 | 0.05 | 0.05 | 72 | 1015.7 |
| 20260505203133 | 15 | 281 | 9.7 | 22.5 | 0.00 | 0.05 | 0.05 | 72 | 1015.6 |
| 20260505202224 | 15 | 276 | 9.7 | 20.9 | 0.00 | 0.05 | 0.05 | 74 | 1015.8 |
| 20260505201719 | 15 | 273 | 11.3 | 24.1 | 0.00 | 0.05 | 0.05 | 73 | 1015.8 |
| 20260505201215 | 15 | 293 | 11.3 | 24.1 | 0.00 | 0.05 | 0.05 | 73 | 1015.9 |
| 20260505201115 | 15 | 215 | 12.9 | 30.6 | 0.00 | 0.05 | 0.05 | 73 | 1015.9 |
| 20260505200213 | 15 | 261 | 12.9 | 30.6 | 0.00 | 0.05 | 0.05 | 73 | 1016.0 |
| 20260505195713 | 16 | 207 | 11.3 | 20.9 | 0.00 | 0.05 | 0.05 | 71 | 1016.0 |
| 20260505195613 | 16 | 210 | 9.7 | 20.9 | 0.00 | 0.05 | 0.05 | 73 | 1016.0 |
| 20260505194709 | 15 | 273 | 9.7 | 19.3 | 0.00 | 0.05 | 0.05 | 74 | 1016.1 |
| 20260505194215 | 15 | 271 | 6.4 | 16.1 | 0.00 | 0.05 | 0.05 | 73 | 1016.1 |
| 20260505193714 | 15 | 228 | 8.0 | 20.9 | 0.00 | 0.05 | 0.05 | 75 | 1016.0 |
| 20260505193213 | 15 | 257 | 9.7 | 20.9 | 0.00 | 0.05 | 0.05 | 75 | 1016.1 |
| 20260505193059 | 15 | 304 | 9.7 | 24.1 | 0.00 | 0.05 | 0.05 | 74 | 1016.1 |
| 20260505192210 | 15 | 266 | 8.0 | 24.1 | 0.00 | 0.05 | 0.05 | 75 | 1016.1 |
| 20260505191708 | 15 | 261 | 8.0 | 20.9 | 0.00 | 0.05 | 0.05 | 75 | 1016.1 |
| 20260505191208 | 15 | 233 | 8.0 | 20.9 | 0.00 | 0.05 | 0.05 | 74 | 1016.0 |
| 20260505190705 | 15 | 258 | 9.7 | 20.9 | 0.00 | 0.05 | 0.05 | 75 | 1016.1 |
| 20260505190212 | 15 | 273 | 11.3 | 22.5 | 0.00 | 0.05 | 0.05 | 74 | 1016.0 |
| 20260505185710 | 15 | 304 | 9.7 | 22.5 | 0.00 | 0.05 | 0.05 | 77 | 1016.0 |
| 20260505185547 | 14 | 290 | 8.0 | 19.3 | 0.00 | 0.05 | 0.05 | 81 | 1016.0 |
| 20260505184823 | 13 | 246 | 9.7 | 19.3 | 0.00 | 0.05 | 0.05 | 81 | 1016.0 |
| 20260505184734 | 14 | 280 | 9.7 | 19.3 | 0.00 | 0.05 | 0.05 | 81 | 1016.0 |
| 20260505183545 | 13 | 207 | 8.0 | 16.1 | 0.00 | 0.05 | 0.05 | 82 | 1016.1 |
| 20260505182704 | 13 | 268 | 8.0 | 17.7 | 0.00 | 0.05 | 0.05 | 82 | 1016.2 |
| 20260505182208 | 13 | 246 | 8.0 | 17.7 | 0.00 | 0.05 | 0.05 | 82 | 1016.1 |
| 20260505182037 | 13 | 315 | 8.0 | 17.7 | 0.00 | 0.05 | 0.05 | 83 | 1016.0 |
| 20260505181203 | 13 | 273 | 6.4 | 17.7 | 0.00 | 0.05 | 0.05 | 83 | 1016.0 |
| 20260505180702 | 13 | 231 | 4.8 | 12.9 | 0.00 | 0.05 | 0.05 | 84 | 1015.9 |
| 20260505180203 | 13 | 335 | 4.8 | 12.9 | 0.00 | 0.05 | 0.05 | 85 | 1015.8 |
| 20260505180143 | 13 | 222 | 4.8 | 14.5 | 0.00 | 0.05 | 0.05 | 85 | 1015.9 |
| 20260505180135 | 13 | 286 | 9.7 | 24.1 | 0.00 | 0.05 | 0.05 | 85 | 1015.8 |
| 20260505174203 | 12 | 244 | 9.7 | 19.3 | 0.00 | 0.05 | 0.05 | 86 | 1015.7 |
| 20260505173701 | 12 | 250 | 8.0 | 17.7 | 0.00 | 0.05 | 0.05 | 86 | 1015.6 |
| 20260505173200 | 12 | 228 | 8.0 | 17.7 | 0.00 | 0.05 | 0.05 | 87 | 1015.7 |
| 20260505172659 | 12 | 255 | 9.7 | 17.7 | 0.00 | 0.05 | 0.05 | 87 | 1015.7 |
| 20260505172201 | 12 | 303 | 9.7 | 17.7 | 0.00 | 0.05 | 0.05 | 87 | 1015.7 |
| 20260505171659 | 12 | 246 | 9.7 | 17.7 | 0.00 | 0.05 | 0.05 | 87 | 1015.6 |
| 20260505171159 | 12 | 261 | 8.0 | 14.5 | 0.00 | 0.05 | 0.05 | 87 | 1015.5 |
| 20260505170659 | 12 | 298 | 6.4 | 14.5 | 0.00 | 0.05 | 0.05 | 86 | 1015.6 |
| 20260505170202 | 12 | 242 | 8.0 | 19.3 | 0.00 | 0.05 | 0.05 | 86 | 1015.6 |
| 20260505170036 | 12 | 267 | 8.0 | 19.3 | 0.00 | 0.05 | 0.05 | 86 | 1015.7 |
| 20260505165155 | 12 | 286 | 6.4 | 17.7 | 0.00 | 0.05 | 0.05 | 86 | 1015.5 |
| 20260505164815 | 12 | 305 | 6.4 | 16.1 | 0.00 | 0.05 | 0.05 | 86 | 1015.5 |
| 20260505163657 | 12 | 303 | 4.8 | 12.9 | 0.00 | 0.05 | 0.05 | 87 | 1015.5 |
| 20260505163152 | 12 | 332 | 4.8 | 11.3 | 0.00 | 0.05 | 0.05 | 87 | 1015.4 |
| 20260505163014 | 12 | 306 | 6.4 | 14.5 | 0.00 | 0.05 | 0.05 | 87 | 1015.3 |
| 20260505162150 | 12 | 288 | 8.0 | 19.3 | 0.00 | 0.05 | 0.05 | 87 | 1015.4 |
| 20260505161649 | 12 | 312 | 8.0 | 19.3 | 0.00 | 0.05 | 0.05 | 87 | 1015.2 |
| 20260505161151 | 12 | 317 | 8.0 | 17.7 | 0.00 | 0.05 | 0.05 | 87 | 1015.2 |
| 20260505160646 | 12 | 275 | 6.4 | 14.5 | 0.00 | 0.05 | 0.05 | 88 | 1015.3 |
| 20260505160146 | 11 | 240 | 4.8 | 12.9 | 0.00 | 0.05 | 0.05 | 88 | 1015.3 |
| 20260505153141 | 11 | 305 | 8.0 | 17.7 | 0.00 | 0.05 | 0.05 | 89 | 1015.1 |
| 20260505152642 | 11 | 286 | 6.4 | 14.5 | 0.00 | 0.05 | 0.05 | 89 | 1015.0 |
| 20260505152143 | 11 | 263 | 6.4 | 14.5 | 0.00 | 0.05 | 0.05 | 89 | 1015.0 |
| 20260505151637 | 11 | 294 | 6.4 | 16.1 | 0.00 | 0.05 | 0.05 | 89 | 1015.0 |
| 20260505151137 | 11 | 287 | 4.8 | 16.1 | 0.00 | 0.05 | 0.05 | 89 | 1014.9 |
| 20260505150641 | 11 | 277 | 3.2 | 11.3 | 0.00 | 0.05 | 0.05 | 89 | 1014.9 |
| 20260505150516 | 11 | 309 | 3.2 | 11.3 | 0.00 | 0.05 | 0.05 | 89 | 1014.9 |
| 20260505140641 | 10 | 275 | 8.0 | 16.1 | 0.00 | 0.05 | 0.05 | 91 | 1014.7 |
| 20260505140141 | 10 | 303 | 6.4 | 14.5 | 0.00 | 0.05 | 0.05 | 91 | 1014.6 |
| 20260505130122 | 10 | 281 | 0.0 | 0.0 | 0.00 | 0.05 | 0.05 | 90 | 1014.4 |
| 20260505124611 | 10 | 281 | 0.0 | 1.6 | 0.00 | 0.05 | 0.05 | 90 | 1014.8 |
| 20260505124105 | 10 | 281 | 0.0 | 3.2 | 0.03 | 0.05 | 0.05 | 90 | 1014.8 |
| 20260505123603 | 10 | 281 | 0.0 | 3.2 | 0.03 | 0.05 | 0.05 | 90 | 1014.6 |
| 20260505123101 | 10 | 281 | 3.2 | 9.7 | 0.03 | 0.05 | 0.05 | 90 | 1014.6 |
| 20260505122945 | 10 | 281 | 4.8 | 12.9 | 0.03 | 0.05 | 0.05 | 90 | 1014.6 |
| 20260505122456 | 10 | 259 | 4.8 | 12.9 | 0.03 | 0.05 | 0.05 | 90 | 1014.5 |
| 20260505121600 | 10 | 300 | 6.4 | 16.1 | 0.03 | 0.05 | 0.05 | 89 | 1014.5 |
| 20260505121058 | 10 | 296 | 8.0 | 16.1 | 0.03 | 0.05 | 0.05 | 89 | 1014.3 |
| 20260505120557 | 10 | 277 | 8.0 | 12.9 | 0.03 | 0.05 | 0.05 | 89 | 1014.3 |
| 20260505120058 | 10 | 261 | 4.8 | 11.3 | 0.03 | 0.05 | 0.05 | 89 | 1014.4 |
| 20260505115558 | 10 | 275 | 4.8 | 11.3 | 0.03 | 0.05 | 0.05 | 89 | 1014.6 |
| 20260505115055 | 10 | 252 | 3.2 | 8.0 | 0.03 | 0.05 | 0.05 | 89 | 1014.6 |
| 20260505114557 | 10 | 242 | 1.6 | 6.4 | 0.03 | 0.05 | 0.05 | 89 | 1014.4 |
| 20260505114444 | 10 | 300 | 3.2 | 11.3 | 0.00 | 0.03 | 0.03 | 89 | 1014.7 |
| 20260505113555 | 10 | 308 | 4.8 | 11.3 | 0.00 | 0.03 | 0.03 | 89 | 1014.7 |
| 20260505113052 | 10 | 269 | 3.2 | 11.3 | 0.03 | 0.03 | 0.03 | 89 | 1014.8 |
| 20260505112554 | 10 | 274 | 1.6 | 6.4 | 0.03 | 0.03 | 0.03 | 89 | 1014.8 |
| 20260505112427 | 10 | 287 | 4.8 | 12.9 | 0.03 | 0.03 | 0.03 | 89 | 1014.8 |
| 20260505111556 | 10 | 305 | 6.4 | 14.5 | 0.03 | 0.03 | 0.03 | 89 | 1014.8 |
| 20260505111059 | 10 | 286 | 4.8 | 14.5 | 0.03 | 0.03 | 0.03 | 89 | 1014.7 |
| 20260505110557 | 10 | 322 | 3.2 | 11.3 | 0.03 | 0.03 | 0.03 | 89 | 1014.6 |
| 20260505102039 | 10 | 264 | 9.7 | 14.5 | 0.00 | 0.00 | 0.00 | 87 | 1014.4 |
| 20260505101538 | 10 | 269 | 6.4 | 12.9 | 0.00 | 0.00 | 0.00 | 87 | 1014.5 |
| 20260505101040 | 10 | 269 | 9.7 | 14.5 | 0.00 | 0.00 | 0.00 | 87 | 1014.5 |
| 20260505100705 | 10 | 270 | 8.0 | 14.5 | 0.00 | 0.00 | 0.00 | 87 | 1014.5 |
| 20260505095916 | 10 | 289 | 8.0 | 12.9 | 0.00 | 0.00 | 0.00 | 86 | 1014.6 |
| 20260505095045 | 10 | 283 | 6.4 | 12.9 | 0.00 | 0.00 | 0.00 | 86 | 1014.7 |
| 20260505094546 | 10 | 269 | 4.8 | 12.9 | 0.00 | 0.00 | 0.00 | 86 | 1014.7 |
| 20260505094044 | 10 | 271 | 3.2 | 6.4 | 0.00 | 0.00 | 0.00 | 85 | 1014.9 |
| 20260505093544 | 10 | 275 | 3.2 | 6.4 | 0.00 | 0.00 | 0.00 | 85 | 1014.9 |
| 20260505093041 | 10 | 275 | 4.8 | 9.7 | 0.00 | 0.00 | 0.00 | 85 | 1015.0 |
| 20260505092544 | 10 | 275 | 6.4 | 11.3 | 0.00 | 0.00 | 0.00 | 85 | 1014.8 |
| 20260505092415 | 10 | 278 | 4.8 | 11.3 | 0.00 | 0.00 | 0.00 | 85 | 1014.9 |
| 20260505091537 | 10 | 286 | 4.8 | 11.3 | 0.00 | 0.00 | 0.00 | 85 | 1015.0 |
| 20260505091036 | 10 | 274 | 3.2 | 6.4 | 0.00 | 0.00 | 0.00 | 85 | 1015.1 |
| 20260505090533 | 10 | 290 | 3.2 | 6.4 | 0.00 | 0.00 | 0.00 | 84 | 1015.0 |
| 20260505090033 | 10 | 292 | 3.2 | 4.8 | 0.00 | 0.00 | 0.00 | 84 | 1015.3 |
| 20260505085531 | 10 | 292 | 3.2 | 6.4 | 0.00 | 0.00 | 0.00 | 84 | 1015.3 |
| 20260505085032 | 10 | 292 | 3.2 | 6.4 | 0.00 | 0.00 | 0.00 | 84 | 1015.3 |
| 20260505084529 | 10 | 292 | 3.2 | 6.4 | 0.00 | 0.00 | 0.00 | 84 | 1015.2 |
| 20260505084023 | 10 | 272 | 3.2 | 6.4 | 0.00 | 0.00 | 0.00 | 84 | 1015.2 |
| 20260505083524 | 10 | 261 | 3.2 | 6.4 | 0.00 | 0.00 | 0.00 | 84 | 1015.3 |
| 20260505083023 | 10 | 261 | 4.8 | 11.3 | 0.00 | 0.00 | 0.00 | 84 | 1015.3 |
| 20260505082531 | 10 | 273 | 6.4 | 11.3 | 0.00 | 0.00 | 0.00 | 84 | 1015.3 |
| 20260505082023 | 10 | 259 | 6.4 | 11.3 | 0.00 | 0.00 | 0.00 | 83 | 1015.2 |
| 20260505081521 | 10 | 270 | 6.4 | 11.3 | 0.00 | 0.00 | 0.00 | 83 | 1015.4 |
| 20260505081021 | 10 | 250 | 6.4 | 14.5 | 0.00 | 0.00 | 0.00 | 83 | 1015.4 |
| 20260505080521 | 10 | 284 | 8.0 | 14.5 | 0.00 | 0.00 | 0.00 | 83 | 1015.4 |
| 20260505080022 | 10 | 252 | 6.4 | 12.9 | 0.00 | 0.00 | 0.00 | 82 | 1015.5 |
| 20260505075917 | 11 | 273 | 6.4 | 12.9 | 0.00 | 0.00 | 0.00 | 82 | 1015.5 |
| 20260505075023 | 11 | 261 | 6.4 | 12.9 | 0.00 | 0.00 | 0.00 | 81 | 1015.5 |
| 20260505074523 | 11 | 267 | 4.8 | 12.9 | 0.00 | 0.00 | 0.00 | 81 | 1015.7 |
| 20260505074023 | 11 | 280 | 4.8 | 12.9 | 0.00 | 0.00 | 0.00 | 80 | 1015.7 |
| 20260505073519 | 11 | 296 | 6.4 | 12.9 | 0.00 | 0.00 | 0.00 | 80 | 1015.7 |
| 20260505073024 | 11 | 281 | 4.8 | 12.9 | 0.00 | 0.00 | 0.00 | 79 | 1015.7 |
| 20260505072639 | 11 | 270 | 1.6 | 11.3 | 0.00 | 0.00 | 0.00 | 79 | 1015.7 |
| 20260505071518 | 11 | 275 | 4.8 | 11.3 | 0.00 | 0.00 | 0.00 | 79 | 1015.5 |
| 20260505071015 | 11 | 257 | 6.4 | 12.9 | 0.00 | 0.00 | 0.00 | 79 | 1015.4 |
| 20260505070516 | 11 | 280 | 6.4 | 14.5 | 0.00 | 0.00 | 0.00 | 79 | 1015.5 |
| 20260505070009 | 11 | 285 | 8.0 | 14.5 | 0.00 | 0.00 | 0.00 | 79 | 1015.4 |
| 20260505065509 | 11 | 296 | 8.0 | 14.5 | 0.00 | 0.00 | 0.00 | 79 | 1015.3 |
| 20260505065405 | 11 | 279 | 6.4 | 14.5 | 0.00 | 0.00 | 0.00 | 80 | 1015.2 |
| 20260505064506 | 11 | 324 | 4.8 | 12.9 | 0.00 | 0.00 | 0.00 | 80 | 1015.3 |
| 20260505064003 | 11 | 276 | 6.4 | 12.9 | 0.00 | 0.00 | 0.00 | 80 | 1015.3 |
| 20260505063503 | 11 | 284 | 6.4 | 14.5 | 0.00 | 0.00 | 0.00 | 80 | 1015.3 |
| 20260505063355 | 11 | 277 | 4.8 | 14.5 | 0.00 | 0.00 | 0.00 | 80 | 1015.3 |
| 20260505062503 | 11 | 290 | 3.2 | 9.7 | 0.00 | 0.00 | 0.00 | 80 | 1015.3 |
| 20260505062002 | 11 | 278 | 4.8 | 12.9 | 0.00 | 0.00 | 0.00 | 80 | 1015.1 |
| 20260505061512 | 11 | 279 | 6.4 | 14.5 | 0.00 | 0.00 | 0.00 | 81 | 1015.0 |
| 20260505061004 | 11 | 279 | 8.0 | 16.1 | 0.00 | 0.00 | 0.00 | 81 | 1015.1 |
| 20260505060453 | 11 | 293 | 6.4 | 16.1 | 0.00 | 0.00 | 0.00 | 81 | 1015.0 |
| 20260505055952 | 11 | 287 | 4.8 | 14.5 | 0.00 | 0.00 | 0.00 | 82 | 1014.9 |
| 20260505055438 | 11 | 290 | 4.8 | 14.5 | 0.00 | 0.00 | 0.00 | 82 | 1015.0 |
| 20260505055313 | 11 | 295 | 6.4 | 14.5 | 0.00 | 0.00 | 0.00 | 82 | 1014.9 |
| 20260505054816 | 11 | 270 | 6.4 | 12.9 | 0.00 | 0.00 | 0.00 | 82 | 1015.0 |
| 20260505053942 | 11 | 254 | 4.8 | 12.9 | 0.00 | 0.00 | 0.00 | 81 | 1015.1 |
| 20260505053441 | 11 | 286 | 6.4 | 17.7 | 0.00 | 0.00 | 0.00 | 81 | 1015.1 |
| 20260505052941 | 11 | 304 | 6.4 | 17.7 | 0.00 | 0.00 | 0.00 | 81 | 1015.1 |
| 20260505052436 | 11 | 294 | 6.4 | 17.7 | 0.00 | 0.00 | 0.00 | 81 | 1015.3 |
| 20260505051934 | 11 | 257 | 6.4 | 17.7 | 0.00 | 0.00 | 0.00 | 82 | 1015.3 |
| 20260505051547 | 11 | 267 | 8.0 | 17.7 | 0.00 | 0.00 | 0.00 | 82 | 1015.4 |
| 20260505050805 | 11 | 276 | 9.7 | 20.9 | 0.00 | 0.00 | 0.00 | 83 | 1015.7 |
| 20260505050307 | 12 | 280 | 8.0 | 17.7 | 0.00 | 0.00 | 0.00 | 83 | 1015.8 |